This is the latest recevied weather packets stored in our database for station/object N0NAI-13. If no packets are shown the sender has not sent any weather packets the latest 10 day(s).
| Time | Temp. | Humidity | Pressure | Rain* | Wind** | Luminosity | Snow |
|---|---|---|---|---|---|---|---|
| 1777923927 | 19.44° C | 32% | 1002.3 hPa | 0 mm | - | - | - |
| 1777923316 | 20.56° C | 31% | 1002.2 hPa | 0 mm | - | - | - |
| 1777922719 | 22.78° C | 33% | 1002 hPa | 0 mm | - | - | - |
| 1777922117 | 21.67° C | 31% | 1001.8 hPa | 0 mm | - | - | - |
| 1777921525 | 22.78° C | 31% | 1001.4 hPa | 0 mm | - | - | - |
| 1777920928 | 22.78° C | 33% | 1001.4 hPa | 0 mm | - | - | - |
| 1777920331 | 22.22° C | 31% | 1001.2 hPa | 0 mm | - | - | - |
| 1777919716 | 23.33° C | 33% | 1001.1 hPa | 0 mm | - | - | - |
| 1777919119 | 22.78° C | 35% | 1001.1 hPa | 0 mm | - | - | - |
| 1777918522 | 22.78° C | 36% | 1001.1 hPa | 0 mm | - | - | - |
| 1777917925 | 23.33° C | 35% | 1000.9 hPa | 0 mm | - | - | - |
| 1777917328 | 22.78° C | 36% | 1001.1 hPa | 0 mm | - | - | - |
| 1777916731 | 22.78° C | 38% | 1001.1 hPa | 0 mm | - | - | - |
| 1777916116 | 22.78° C | 38% | 1001.1 hPa | 0 mm | - | - | - |
| 1777915518 | 22.22° C | 39% | 1001.1 hPa | 0 mm | - | - | - |
| 1777914920 | 22.78° C | 38% | 1001.1 hPa | 0 mm | - | - | - |
| 1777914323 | 22.78° C | 42% | 1001.1 hPa | 0 mm | - | - | - |
| 1777913727 | - | - | 1000.9 hPa | 0 mm | - | - | - |
| 1777913129 | 22.78° C | 45% | 1000.9 hPa | 0 mm | - | - | - |
| 1777912526 | 21.67° C | 46% | 1000.9 hPa | 0 mm | - | - | - |
| 1777911917 | 21.67° C | 46% | 1000.9 hPa | 0 mm | - | - | - |
| 1777911320 | 21.67° C | 46% | 1000.9 hPa | 0 mm | - | - | - |
| 1777910717 | 21.67° C | 47% | 1000.9 hPa | 0 mm | - | - | - |
| 1777910126 | 21.11° C | 47% | 1000.7 hPa | 0 mm | - | - | - |
| 1777909529 | 21.11° C | 47% | 1000.8 hPa | 0 mm | - | - | - |
* Rain latest hour (hover to see other rain measurements)
** Current wind speed in m/s (hover to see current wind gust speed)